IONOSFERA-M 4

Last updated on Thu Oct 30 2025 00:02:32 GMT+0000 (Coordinated Universal Time)

1 64877U 25155B 25302.47190380 .00000127 00000+0 77847-4 0 9990 2 64877 98.5714 265.5258 0001509 109.6674 250.4667 14.21425169 13626
UTC large
Height (km)
Speed (km/s)
/
Latitude / Longitude
Inclination (degrees)
Orbital Period (minutes)
Azimuth
Elevation
Range (km)
Doppler Factor

Next 0 passes for location: London (51.5072 / 0.1276)

Sorry there are no passes over London.